Home > Time Zones > World Clock > Weather > Togo > Lome > Past weeks

Flag for Togo Weather past 2 weeks in Lome, Togo

Now
79 °F

Scattered clouds.


Feels Like: 82 °F
Forecast: 76 / 80 °F
Wind: 9 mph from Southwest

Location: Lome Airport

Current Time: Sep 17, 2014 at 8:24:51 AM

Latest Report: Sep 17, 2014 at 8:00 AM


Visibility: 5 mi

Pressure: 29.95 "Hg

Humidity: 89%

Dew point: 75 °F

Location of LomeLocation

Historic Weather in Lome — Graph

°F

Lome temperature yesterday

Maximum temperature yesterday: 82 °F (at 2:00 PM)
Minimum temperature yesterday: 77 °F (at 1:00 AM)
Average temperature yesterday: 79 °F

Past Weeks' High & Low Weather Summary

 TemperatureHumidityPressure
High86 °F (Sep 15, 12:00 PM)100% (Sep 2, 7:00 AM)30.04 "Hg (Sep 2, 7:00 AM)
Low70 °F (Sep 12, 3:00 AM)70% (Sep 7, 1:00 PM)29.83 "Hg (Sep 12, 3:00 PM)
Average78 °F88%29.93 "Hg
* Reported Sep 2 7:00 AM — Sep 17 7:00 AM, Lome, Weather by CustomWeather, © 2014

Note: Actual official high and low records may vary slightly from our data, if they occured in-between our weather recording intervals... More about our weather records

Advertising

Lome weather history for previous 24 hours

 ConditionsComfort  
Time TempWeatherWind HumidityBarometerVisibility
7:00 AM
Sep 17
77 °FScattered clouds.7 mph94%29.95 "Hg5 mi
6:00 AM77 °FPartly sunny.7 mph94%29.92 "HgN/A
5:00 AM77 °FPassing clouds.7 mph94%29.89 "HgN/A
4:00 AM77 °FPassing clouds.7 mph94%29.89 "HgN/A
3:00 AM77 °FPassing clouds.7 mph94%29.89 "HgN/A
2:00 AM77 °FPassing clouds.2 mph89%29.89 "HgN/A
1:00 AM77 °FPassing clouds.5 mph89%29.92 "HgN/A
12:00 AM77 °FPassing clouds.8 mph89%29.95 "HgN/A
11:00 PM
Sep 16
79 °FPassing clouds.8 mph84%29.95 "HgN/A
10:00 PM79 °FPassing clouds.8 mph84%29.95 "HgN/A
9:00 PM79 °FPassing clouds.7 mph89%29.95 "HgN/A
8:00 PM79 °FPassing clouds.9 mph84%29.92 "HgN/A
7:00 PM79 °FPassing clouds.7 mph89%29.92 "HgN/A
6:00 PM79 °FPassing clouds.13 mph89%29.89 "HgN/A
5:00 PM79 °FScattered clouds.9 mph89%29.86 "HgN/A
4:00 PM81 °FScattered clouds.13 mph84%29.86 "HgN/A
3:00 PM81 °FBroken clouds.12 mph84%29.89 "HgN/A
2:00 PM82 °FScattered clouds.10 mph84%29.89 "HgN/A
1:00 PM81 °FScattered clouds.13 mph84%29.89 "HgN/A
12:00 PM81 °FBroken clouds.7 mph84%29.92 "HgN/A
11:00 AM79 °FPartly sunny.8 mph89%29.95 "Hg5 mi
10:00 AM79 °FLight rain. Partly sunny.5 mph89%29.98 "Hg5 mi
9:00 AM79 °FBroken clouds.6 mph89%29.98 "HgN/A
8:00 AM79 °FScattered clouds.8 mph89%29.98 "Hg5 mi
Weather by CustomWeather, © 2014

See weather overviewHow to use our weather pages